Location: Kuffner-Sternwarte
(48.2130°N, 16.2960°E)
Time: 02:02:48
(UTC+02:00)

COROT - Pass Details

Date: 15 January 2018
Orbit: 600 x 889 km, 90.0° (Epoch: 22 April)

Event Time Altitude Azimuth Distance (km) Brightness Sun altitude
Rises 06:32:29 0° 346° (NNW) 2,864 8.6 -11.1°
Reaches altitude 10° 06:35:23 10° 324° (NW) 1,953 7.6 -10.6°
Maximum altitude 06:37:56 16° 287° (WNW) 1,611 7.0 -10.2°
Drops below altitude 10° 06:40:30 10° 250° (WSW) 1,969 7.7 -9.8°
Sets 06:43:27 0° 228° (SW) 2,899 8.7 -9.4°
